Time,TemperatureF,DewpointF,PressureIn,WindDirection,WindDirectionDegrees,WindSpeedMPH,WindSpeedGustMPH,Humidity,HourlyPrecipIn,Conditions,Clouds,dailyrainin,SoftwareType,DateUTC
2013-08-19 15:53:00,81.0,62.7,29.45,WNW,292,2.7,2.7,54,0.00,CLR,SKC,0.00,WeatherDisplay:10.37,2013-08-19 19:53:00,
2013-08-19 15:58:00,80.8,62.1,29.45,West,270,3.1,3.1,53,0.00,CLR,SKC,0.00,WeatherDisplay:10.37,2013-08-19 19:58:00,
2013-08-19 16:03:00,80.6,61.4,29.44,NE,45,0.2,1.1,52,2.59,,---,0.00,VWS V14.01,2013-08-19 20:03:00,
2013-08-19 16:08:00,80.6,61.9,29.44,WSW,248,0.4,1.8,53,2.59,,---,0.00,VWS V14.01,2013-08-19 20:08:00,
2013-08-19 16:13:00,80.8,62.6,29.44,NNW,338,2.7,2.7,54,0.00,CLR,SKC,0.00,WeatherDisplay:10.37,2013-08-19 20:13:00,
2013-08-19 16:18:00,80.8,61.0,29.45,North,0,2.7,2.7,51,0.00,CLR,SKC,0.00,WeatherDisplay:10.37,2013-08-19 20:18:00,
2013-08-19 16:23:00,80.8,62.1,29.44,North,0,0.4,1.1,53,2.59,,---,0.00,VWS V14.01,2013-08-19 20:23:00,
2013-08-19 16:28:00,80.8,62.1,29.44,West,270,2.7,2.7,53,0.00,CLR,SKC,0.00,WeatherDisplay:10.37,2013-08-19 20:28:00,
2013-08-19 16:33:00,80.8,62.1,29.44,WSW,248,2.7,2.7,53,0.00,CLR,SKC,0.00,WeatherDisplay:10.37,2013-08-19 20:33:00,
2013-08-19 16:38:00,80.6,61.9,29.45,SSW,202,1.6,1.6,53,2.59,,---,0.00,VWS V14.01,2013-08-19 20:38:00,
2013-08-19 16:43:00,80.6,61.9,29.44,North,0,2.7,2.7,53,0.00,CLR,SKC,0.00,WeatherDisplay:10.37,2013-08-19 20:43:00,
2013-08-19 16:48:00,80.6,62.4,29.44,NNW,338,1.6,1.8,54,2.59,,---,0.00,VWS V14.01,2013-08-19 20:48:00,
2013-08-19 16:53:00,80.6,61.9,29.44,West,270,2.7,2.7,53,0.00,CLR,SKC,0.00,WeatherDisplay:10.37,2013-08-19 20:53:00,
2013-08-19 16:58:00,80.6,61.9,29.44,North,0,0.2,1.1,53,0.00,,---,3.50,VWS V14.01,2013-08-19 20:58:00,
2013-08-19 17:03:00,80.4,61.7,29.45,WNW,292,2.7,2.7,53,0.00,CLR,SKC,0.00,WeatherDisplay:10.37,2013-08-19 21:03:00,
2013-08-19 17:08:00,80.2,61.6,29.45,WNW,292,2.7,2.7,53,0.00,CLR,SKC,0.00,WeatherDisplay:10.37,2013-08-19 21:08:00,
2013-08-19 17:13:00,80.2,61.0,29.45,NNW,338,2.7,2.7,52,0.00,CLR,SKC,0.00,WeatherDisplay:10.37,2013-08-19 21:13:00,
2013-08-19 17:18:00,80.3,61.6,29.45,WSW,248,0.4,1.1,53,0.00,,---,0.00,VWS V14.01,2013-08-19 21:18:00,
2013-08-19 17:23:00,80.3,61.6,29.45,NNW,338,0.4,0.4,53,0.00,,---,0.00,VWS V14.01,2013-08-19 21:23:00,
2013-08-19 17:28:00,80.1,62.0,29.45,West,270,0.0,0.4,54,0.00,,---,0.00,VWS V14.01,2013-08-19 21:28:00,
2013-08-19 17:33:00,79.9,61.7,29.45,NNE,22,2.3,2.6,54,0.00,CLR,SKC,0.00,WeatherDisplay:10.37,2013-08-19 21:33:00,
2013-08-19 17:38:00,79.9,61.3,29.45,NW,315,0.2,2.7,53,0.00,,---,3.50,VWS V14.01,2013-08-19 21:38:00,
2013-08-19 17:43:00,79.9,61.8,29.45,WSW,248,1.1,1.1,54,0.00,,---,0.00,VWS V14.01,2013-08-19 21:43:00,
2013-08-19 17:48:00,79.7,62.1,29.45,WNW,292,2.3,2.3,55,0.00,CLR,SKC,0.00,WeatherDisplay:10.37,2013-08-19 21:48:00,
2013-08-19 17:53:00,79.6,62.0,29.45,WNW,292,0.0,1.3,55,0.00,,---,0.00,VWS V14.01,2013-08-19 21:53:00,
2013-08-19 17:58:00,79.4,62.3,29.45,North,0,0.0,1.1,56,0.00,,---,0.00,VWS V14.01,2013-08-19 21:58:00,
2013-08-19 18:03:00,79.0,62.0,29.45,SW,225,0.0,0.4,56,0.00,,---,0.00,VWS V14.01,2013-08-19 22:03:00,
2013-08-19 18:08:00,78.8,62.3,29.45,SSW,202,1.3,1.3,57,0.00,,---,0.00,VWS V14.01,2013-08-19 22:08:00,
2013-08-19 18:13:00,78.7,62.2,29.45,WNW,292,0.4,1.3,57,0.00,,---,0.00,VWS V14.01,2013-08-19 22:13:00,
2013-08-19 18:18:00,78.4,61.9,29.45,West,270,2.7,2.7,57,0.00,CLR,SKC,0.00,WeatherDisplay:10.37,2013-08-19 22:18:00,
2013-08-19 18:23:00,78.1,61.6,29.45,NW,315,2.7,2.7,57,0.00,CLR,SKC,0.00,WeatherDisplay:10.37,2013-08-19 22:23:00,
2013-08-19 18:28:00,77.9,61.4,29.46,NW,315,2.7,2.7,57,0.00,CLR,SKC,0.00,WeatherDisplay:10.37,2013-08-19 22:28:00,
2013-08-19 18:33:00,77.8,61.4,29.46,West,270,1.6,1.6,57,0.00,,---,0.00,VWS V14.01,2013-08-19 22:33:00,
2013-08-19 18:38:00,77.5,61.1,29.46,North,0,2.7,2.7,57,0.00,CLR,SKC,0.00,WeatherDisplay:10.37,2013-08-19 22:38:00,
2013-08-19 18:43:00,77.4,61.0,29.46,NE,45,0.0,0.4,57,0.00,,---,0.00,VWS V14.01,2013-08-19 22:43:00,
2013-08-19 18:48:00,77.0,61.1,29.46,NNE,22,0.4,0.4,58,0.00,,---,0.00,VWS V14.01,2013-08-19 22:48:00,
2013-08-19 18:53:00,76.6,60.8,29.47,NE,45,2.7,2.7,58,0.00,CLR,SKC,0.00,WeatherDisplay:10.37,2013-08-19 22:53:00,
2013-08-19 18:58:00,76.7,61.3,29.47,SW,225,0.9,1.1,59,0.00,,---,0.00,VWS V14.01,2013-08-19 22:58:00,
2013-08-19 19:03:00,76.3,60.9,29.47,West,270,0.9,0.9,59,0.00,,---,0.00,VWS V14.01,2013-08-19 23:03:00,
2013-08-19 19:08:00,76.1,60.8,29.47,WNW,292,0.0,0.4,59,0.00,,---,0.00,VWS V14.01,2013-08-19 23:08:00,
2013-08-19 19:13:00,75.9,61.0,29.47,WNW,292,2.7,0.0,60,0.00,CLR,SKC,0.00,WeatherDisplay:10.37,2013-08-19 23:13:00,
2013-08-19 19:18:00,75.6,60.8,29.47,WSW,248,1.1,1.1,60,0.00,,---,3.50,VWS V14.01,2013-08-19 23:18:00,
2013-08-19 19:23:00,75.4,60.6,29.47,NW,315,0.7,0.7,60,0.00,,---,0.00,VWS V14.01,2013-08-19 23:23:00,
2013-08-19 19:28:00,75.2,60.4,29.47,WNW,292,0.0,0.7,60,0.00,,---,0.00,VWS V14.01,2013-08-19 23:28:00,
2013-08-19 19:33:00,74.7,60.3,29.47,SW,225,2.7,2.7,61,0.00,CLR,SKC,0.00,WeatherDisplay:10.37,2013-08-19 23:33:00,
2013-08-19 19:38:00,74.5,60.2,29.47,SW,225,0.0,0.2,61,0.00,,---,0.00,VWS V14.01,2013-08-19 23:38:00,
2013-08-19 19:43:00,74.2,60.8,29.47,SW,225,0.0,0.0,63,0.00,,---,0.00,VWS V14.01,2013-08-19 23:43:00,
2013-08-19 19:48:00,73.8,60.4,29.47,SW,225,2.7,2.7,63,0.00,CLR,SKC,0.00,WeatherDisplay:10.37,2013-08-19 23:48:00,
2013-08-19 19:53:00,73.3,60.4,29.47,SW,225,0.0,0.0,64,0.00,,---,0.00,VWS V14.01,2013-08-19 23:53:00,
2013-08-19 19:58:00,72.9,60.5,29.47,SW,225,0.0,0.0,65,0.00,,---,0.00,VWS V14.01,2013-08-19 23:58:00,
2013-08-19 20:03:00,72.7,60.2,29.47,NNW,338,2.7,0.0,65,0.00,CLR,SKC,0.00,WeatherDisplay:10.37,2013-08-20 00:03:00,
2013-08-19 20:08:00,72.5,60.1,29.47,NW,315,0.0,0.0,65,0.00,,---,0.00,VWS V14.01,2013-08-20 00:08:00,
2013-08-19 20:13:00,72.4,60.0,29.47,WNW,292,0.0,0.4,65,0.00,,---,0.00,VWS V14.01,2013-08-20 00:13:00,
2013-08-19 20:18:00,72.3,59.9,29.47,WSW,248,2.7,0.0,65,0.00,CLR,SKC,0.00,WeatherDisplay:10.37,2013-08-20 00:18:00,
2013-08-19 20:23:00,72.3,59.9,29.48,West,270,2.7,2.7,65,0.00,CLR,SKC,0.00,WeatherDisplay:10.37,2013-08-20 00:23:00,
2013-08-19 20:28:00,72.5,60.1,29.48,SW,225,0.9,1.8,65,0.00,,---,3.50,VWS V14.01,2013-08-20 00:28:00,
2013-08-19 20:33:00,72.7,60.2,29.48,West,270,2.7,0.0,65,0.00,CLR,SKC,0.00,WeatherDisplay:10.37,2013-08-20 00:33:00,
2013-08-19 20:38:00,72.7,60.3,29.48,SW,225,0.2,0.2,65,0.00,,---,0.00,VWS V14.01,2013-08-20 00:38:00,
2013-08-19 20:43:00,72.7,60.3,29.48,West,270,0.2,0.7,65,0.00,,---,0.00,VWS V14.01,2013-08-20 00:43:00,
2013-08-19 20:48:00,72.7,60.3,29.48,WSW,248,0.4,0.4,65,0.00,,---,0.00,VWS V14.01,2013-08-20 00:48:00,
2013-08-19 20:53:00,72.9,60.0,29.48,WNW,292,2.7,0.0,64,0.00,CLR,SKC,0.00,WeatherDisplay:10.37,2013-08-20 00:53:00,
2013-08-19 20:58:00,72.7,60.3,29.48,WSW,248,0.0,0.7,65,0.00,,---,0.00,VWS V14.01,2013-08-20 00:58:00,
2013-08-19 21:03:00,72.7,60.3,29.48,WSW,248,0.4,0.4,65,0.00,,---,0.00,VWS V14.01,2013-08-20 01:03:00,
2013-08-19 21:08:00,72.3,59.9,29.48,WSW,248,2.3,0.0,65,0.00,CLR,SKC,0.00,WeatherDisplay:10.37,2013-08-20 01:08:00,
2013-08-19 21:13:00,72.4,60.0,29.49,WSW,248,0.0,0.0,65,0.00,,---,0.00,VWS V14.01,2013-08-20 01:13:00,
2013-08-19 21:18:00,72.2,60.2,29.49,WSW,248,0.0,0.0,66,0.00,,---,0.00,VWS V14.01,2013-08-20 01:18:00,
2013-08-19 21:23:00,71.8,59.8,29.49,WSW,248,0.0,0.0,66,0.00,,---,0.00,VWS V14.01,2013-08-20 01:23:00,
2013-08-19 21:28:00,71.6,59.7,29.49,NNW,338,0.0,0.0,66,0.00,,---,0.00,VWS V14.01,2013-08-20 01:28:00,
2013-08-19 21:33:00,71.3,59.4,29.48,West,270,0.0,0.0,66,0.00,,---,0.00,VWS V14.01,2013-08-20 01:33:00,
2013-08-19 21:38:00,70.9,59.4,29.48,NNW,338,0.2,0.2,67,0.00,,---,0.00,VWS V14.01,2013-08-20 01:38:00,
2013-08-19 21:43:00,70.9,59.4,29.48,NNW,338,0.0,0.0,67,0.00,,---,0.00,VWS V14.01,2013-08-20 01:43:00,
2013-08-19 21:48:00,70.4,58.9,29.48,NNW,338,0.0,0.0,67,0.00,,---,3.50,VWS V14.01,2013-08-20 01:48:00,
2013-08-19 21:53:00,70.0,59.0,29.48,NNW,338,0.0,0.0,68,0.00,,---,0.00,VWS V14.01,2013-08-20 01:53:00,
2013-08-19 21:58:00,69.4,58.4,29.49,SE,135,2.7,0.0,68,0.00,CLR,SKC,0.00,WeatherDisplay:10.37,2013-08-20 01:58:00,
2013-08-19 22:03:00,69.1,58.5,29.49,SE,135,2.7,0.0,69,0.00,CLR,SKC,0.00,WeatherDisplay:10.37,2013-08-20 02:03:00,
2013-08-19 22:08:00,68.7,58.5,29.49,SE,135,2.7,0.0,70,0.00,CLR,SKC,0.00,WeatherDisplay:10.37,2013-08-20 02:08:00,
2013-08-19 22:13:00,68.8,58.6,29.48,SE,135,0.0,0.0,70,0.00,,---,0.00,VWS V14.01,2013-08-20 02:13:00,
2013-08-19 22:18:00,68.6,58.4,29.49,SE,135,0.0,0.0,70,0.00,,---,0.00,VWS V14.01,2013-08-20 02:18:00,
2013-08-19 22:23:00,68.2,58.4,29.49,SE,135,2.3,0.0,71,0.00,CLR,SKC,0.00,WeatherDisplay:10.37,2013-08-20 02:23:00,
2013-08-19 22:28:00,67.7,58.0,29.49,SE,135,0.0,0.0,71,0.00,,---,3.50,VWS V14.01,2013-08-20 02:28:00,
2013-08-19 22:33:00,67.3,58.0,29.49,SE,135,0.4,0.4,72,0.00,,---,0.00,VWS V14.01,2013-08-20 02:33:00,
2013-08-19 22:38:00,67.0,58.1,29.49,SE,135,0.0,0.0,73,0.00,,---,3.50,VWS V14.01,2013-08-20 02:38:00,
2013-08-19 22:43:00,66.4,57.9,29.49,SE,135,0.0,0.4,74,0.00,,---,0.00,VWS V14.01,2013-08-20 02:43:00,
2013-08-19 22:48:00,66.1,57.6,29.49,SE,135,0.0,0.0,74,0.00,,---,0.00,VWS V14.01,2013-08-20 02:48:00,
2013-08-19 22:53:00,65.9,57.8,29.49,SE,135,0.0,0.0,75,0.00,,---,0.00,VWS V14.01,2013-08-20 02:53:00,
2013-08-19 22:58:00,65.7,57.9,29.49,SSE,158,0.0,0.0,76,0.00,,---,0.00,VWS V14.01,2013-08-20 02:58:00,
2013-08-19 23:03:00,65.7,57.9,29.49,SE,135,0.0,0.0,76,0.00,,---,0.00,VWS V14.01,2013-08-20 03:03:00,
2013-08-19 23:08:00,65.7,57.9,29.49,SE,135,2.7,0.0,76,0.00,CLR,SKC,0.00,WeatherDisplay:10.37,2013-08-20 03:08:00,
2013-08-19 23:13:00,65.7,57.9,29.49,SSE,158,2.7,2.7,76,0.00,CLR,SKC,0.00,WeatherDisplay:10.37,2013-08-20 03:13:00,